CW1187 Weather Reports


time (UTC)temp
C
wind
direction
speed
KPH
gust
KPH
rain 1hr
cm
rain 24hr
cm
rain mn
cm
humidity
%
barometer
mb
20260906073024 20 54 3.2 6.4 0.00 0.00 0.00 88 1014.8
20260906071819 20 46 1.6 4.8 0.00 0.00 0.00 88 1014.7
20260906071647 20 46 1.6 4.8 0.00 0.00 0.00 88 1014.7
20260906071024 20 45 1.6 4.8 0.00 0.00 0.00 89 1014.8
20260906070443 21 44 1.6 6.4 0.00 0.00 0.00 88 1014.7
20260906065732 21 44 1.6 6.4 0.00 0.00 0.00 88 1014.7
20260906063516 21 40 4.8 8.0 0.00 0.00 0.00 88 1014.8
20260906063320 21 40 4.8 8.0 0.00 0.00 0.00 88 1014.8
20260906062149 21 49 3.2 8.0 0.00 0.00 0.00 89 1014.8
20260906061831 21 55 3.2 8.0 0.00 0.00 0.00 89 1014.7
20260906061426 21 34 3.2 9.7 0.00 0.00 0.00 90 1014.8
20260906060934 21 55 3.2 9.7 0.00 0.00 0.00 90 1014.7
20260906060355 22 50 3.2 8.0 0.00 0.00 0.00 90 1014.8
20260906060302 22 50 3.2 8.0 0.00 0.00 0.00 90 1014.8
20260906055355 22 25 1.6 6.4 0.00 0.00 0.00 90 1014.8
20260906055258 22 25 1.6 6.4 0.00 0.00 0.00 90 1014.8
20260906053828 22 54 1.6 6.4 0.00 0.00 0.00 90 1014.5
20260906052041 22 57 3.2 8.0 0.00 0.00 0.00 89 1014.4
20260906051627 22 56 3.2 11.3 0.00 0.00 0.00 89 1014.4
20260906051358 22 55 4.8 11.3 0.00 0.00 0.00 89 1014.4
20260906051021 22 53 4.8 8.0 0.00 0.00 0.00 90 1014.3
20260906045907 22 46 3.2 6.4 0.00 0.00 0.00 90 1014.3
20260906044827 22 57 3.2 6.4 0.00 0.00 0.00 90 1014.2
20260906043858 22 51 3.2 6.4 0.00 0.00 0.00 89 1014.1
20260906041918 22 55 4.8 8.0 0.00 0.00 0.00 89 1013.9
20260906041836 22 55 4.8 8.0 0.00 0.00 0.00 89 1013.9
20260906041045 22 46 3.2 8.0 0.00 0.00 0.00 89 1013.9
20260906040727 22 48 4.8 8.0 0.00 0.00 0.00 89 1013.8
20260906035851 22 50 3.2 8.0 0.00 0.00 0.00 90 1013.9
20260906034019 23 46 3.2 6.4 0.00 0.00 0.00 89 1013.8
20260906032124 22 53 3.2 6.4 0.00 0.00 0.00 89 1013.9
20260906031044 22 54 1.6 4.8 0.00 0.00 0.00 89 1013.9
20260906030542 22 54 3.2 4.8 0.00 0.00 0.00 89 1013.9
20260906025718 22 55 1.6 4.8 0.00 0.00 0.00 88 1014.0
20260906025003 22 54 1.6 4.8 0.00 0.00 0.00 88 1014.0
20260906022945 22 57 1.6 4.8 0.00 0.00 0.00 86 1014.0
20260906021725 23 57 1.6 6.4 0.00 0.00 0.00 85 1014.0
20260906020430 22 51 4.8 8.0 0.00 0.00 0.00 83 1013.8
20260906013352 23 49 1.6 4.8 0.00 0.00 0.00 81 1013.4
20260906012942 23 48 1.6 6.4 0.00 0.00 0.00 80 1013.3
20260906011422 23 48 3.2 6.4 0.00 0.00 0.00 79 1013.3
20260906010953 23 53 1.6 3.2 0.00 0.00 0.00 78 1013.0
20260906010723 23 53 1.6 3.2 0.00 0.00 0.00 78 1013.0
20260906010446 23 52 0.0 3.2 0.00 0.00 0.00 78 1013.0
20260906005648 23 52 1.6 4.8 0.00 0.00 0.00 77 1013.0
20260906005503 23 52 1.6 4.8 0.00 0.00 0.00 77 1012.8
20260906005428 23 52 1.6 4.8 0.00 0.00 0.00 77 1012.8
20260906002141 25 49 3.2 6.4 0.00 0.00 0.00 75 1012.5
20260906001038 25 0 0.0 3.2 0.00 0.00 0.00 72 1012.3
20260906000540 25 16 0.0 3.2 0.00 0.00 0.00 73 1012.3
20260905235435 25 0 0.0 3.2 0.00 0.00 0.00 75 1012.5
20260905234701 25 0 0.0 4.8 0.00 0.00 0.00 76 1012.4
20260905234329 25 39 1.6 4.8 0.00 0.00 0.00 76 1012.4
20260905232726 26 15 0.0 12.9 0.00 0.00 0.00 75 1012.3
20260905232437 26 348 3.2 12.9 0.00 0.00 0.00 79 1012.4
20260905231641 26 360 3.2 14.5 0.00 0.00 0.00 72 1012.5
20260905231349 26 24 1.6 14.5 0.00 0.00 0.00 71 1012.5
20260905230929 27 360 4.8 25.7 0.00 0.00 0.00 70 1012.8
20260905225851 30 360 9.7 22.5 0.00 0.00 0.00 68 1012.8
20260905224937 30 329 3.2 8.0 0.00 0.00 0.00 67 1012.4
20260905223557 31 0 1.6 4.8 0.00 0.00 0.00 66 1012.3
20260905220653 32 279 1.6 11.3 0.00 0.00 0.00 60 1011.6
20260905215018 32 288 1.6 6.4 0.00 0.00 0.00 59 1012.0
20260905213941 32 316 1.6 6.4 0.00 0.00 0.00 58 1011.8
20260905212417 33 313 3.2 11.3 0.00 0.00 0.00 57 1011.9
20260905211232 33 264 3.2 11.3 0.00 0.00 0.00 56 1011.9
20260905205929 33 327 3.2 9.7 0.00 0.03 0.00 55 1012.1
20260905204935 33 333 1.6 9.7 0.00 0.03 0.00 57 1012.4
20260905204219 33 285 3.2 9.7 0.00 0.03 0.00 55 1012.5
20260905203839 33 0 3.2 9.7 0.00 0.03 0.00 56 1012.5
20260905203034 33 293 3.2 9.7 0.00 0.03 0.00 54 1012.6
20260905201927 33 321 3.2 9.7 0.00 0.03 0.00 55 1012.7
20260905201343 34 348 3.2 12.9 0.00 0.03 0.00 54 1012.8
20260905200726 33 295 3.2 12.9 0.00 0.03 0.00 55 1012.8
20260905194948 35 283 1.6 12.9 0.00 1.45 0.00 53 1012.9
20260905194131 35 255 4.8 12.9 0.00 1.45 0.00 54 1013.0
20260905193749 35 241 3.2 11.3 0.00 1.45 0.00 53 1013.1
20260905193456 35 259 4.8 12.9 0.00 1.45 0.00 53 1013.1
20260905192055 34 252 4.8 11.3 0.00 1.45 0.00 59 1013.4
20260905191457 34 254 3.2 9.7 0.00 1.45 0.00 55 1013.5
20260905190744 34 267 3.2 11.3 0.00 1.45 0.00 55 1013.5
20260905190028 34 250 3.2 9.7 0.00 1.45 0.00 53 1013.6
20260905185856 34 250 3.2 9.7 0.00 1.45 0.00 53 1013.6
20260905185101 33 261 3.2 11.3 0.00 1.45 0.00 60 1013.7
20260905184903 33 245 3.2 12.9 0.00 1.45 0.00 58 1013.8
20260905184017 33 253 3.2 12.9 0.00 1.45 0.00 56 1013.9
20260905183841 33 253 3.2 12.9 0.00 1.45 0.00 56 1013.9
20260905183549 33 253 3.2 12.9 0.00 1.45 0.00 56 1013.9
20260905183133 33 254 4.8 12.9 0.00 1.45 0.00 55 1013.8
20260905180957 32 248 3.2 12.9 0.00 1.45 0.00 57 1013.9
20260905175919 32 246 4.8 14.5 0.00 1.45 0.00 57 1013.9
20260905175500 32 260 6.4 14.5 0.00 1.45 0.00 57 1014.0
20260905174501 31 242 4.8 14.5 0.00 1.45 0.00 64 1014.1
20260905172037 30 244 4.8 11.3 0.00 1.45 0.00 63 1014.1
20260905170524 28 205 3.2 9.7 0.00 1.45 0.00 63 1014.5
20260905165625 28 202 3.2 11.3 0.00 1.45 0.00 64 1014.7
20260905163746 29 221 1.6 12.9 0.00 1.45 0.00 63 1015.0
20260905160846 29 163 4.8 14.5 0.00 1.45 0.00 61 1015.4
20260905154038 27 202 3.2 11.3 0.00 1.45 0.00 67 1015.1
20260905151933 27 162 6.4 16.1 0.00 1.45 0.00 64 1014.7
20260905151043 26 164 4.8 14.5 0.00 1.45 0.00 66 1014.7
20260905151041 26 134 4.8 12.9 0.00 1.45 0.00 66 1014.7
20260905150937 26 134 4.8 12.9 0.00 1.45 0.00 66 1014.7
20260905145626 26 109 6.4 17.7 0.00 1.45 0.00 69 1014.7
20260905145441 26 147 6.4 17.7 0.00 1.45 0.00 67 1015.0
20260905144437 26 165 4.8 12.9 0.00 1.45 0.00 70 1015.1
20260905143459 25 94 3.2 12.9 0.00 1.45 0.00 70 1015.2
20260905142958 25 108 6.4 12.9 0.00 1.45 0.00 71 1015.2
20260905141920 25 154 4.8 11.3 0.00 1.45 0.00 76 1015.3
20260905141219 25 186 4.8 19.3 0.00 1.45 0.00 72 1015.2
20260905140853 25 178 4.8 20.9 0.00 1.45 0.00 72 1015.1
20260905135552 24 152 6.4 17.7 0.00 1.45 0.00 74 1015.1
20260905135419 24 119 8.0 17.7 0.00 1.45 0.00 74 1015.3
20260905134053 23 83 4.8 16.1 0.00 1.45 0.00 79 1015.5
20260905133418 23 96 4.8 14.5 0.00 1.45 0.00 76 1015.6
20260905132520 23 103 3.2 11.3 0.00 1.45 0.00 78 1015.9
20260905132348 23 103 3.2 11.3 0.00 1.45 0.00 78 1015.9
20260905131403 23 123 4.8 17.7 0.00 1.45 0.00 78 1015.8
20260905125934 22 102 4.8 14.5 0.00 1.45 0.00 79 1015.7
20260905125228 22 98 3.2 14.5 0.00 1.45 0.00 79 1015.6
20260905124525 22 108 1.6 12.9 0.00 1.45 0.00 80 1015.6
20260905123524 21 113 1.6 16.1 0.00 1.45 0.00 80 1015.1
20260905123431 21 113 1.6 16.1 0.00 1.45 0.00 80 1015.1
20260905123042 21 163 4.8 16.1 0.00 1.45 0.00 80 1015.2
20260905121955 21 95 4.8 16.1 0.00 1.45 0.00 79 1015.4
20260905121424 21 160 3.2 11.3 0.00 1.45 0.00 79 1015.4
20260905115457 21 117 3.2 6.4 0.00 1.45 0.00 79 1015.3
20260905112919 21 56 3.2 9.7 0.00 1.45 0.00 80 1015.5
20260905112340 21 53 6.4 11.3 0.00 1.45 0.00 80 1015.7
20260905112016 21 55 6.4 11.3 0.00 1.45 0.00 80 1015.6
20260905111856 21 55 6.4 11.3 0.00 1.45 0.00 80 1015.6
20260905111222 21 46 4.8 11.3 0.00 1.45 0.00 80 1015.5
20260905110353 21 53 4.8 14.5 0.00 1.45 0.00 80 1015.4
20260905105113 21 53 4.8 12.9 0.00 1.45 0.00 81 1015.3
20260905104941 21 52 8.0 17.7 0.00 1.45 0.00 81 1015.5
20260905104028 21 63 8.0 17.7 0.00 1.45 0.00 80 1015.6
20260905103519 21 57 9.7 17.7 0.00 1.45 0.00 80 1015.6
20260905102951 21 58 8.0 22.5 0.00 1.45 0.00 80 1015.6
20260905101651 22 63 11.3 24.1 0.00 1.45 0.00 79 1015.4
20260905101326 22 67 11.3 24.1 0.00 1.45 0.00 80 1015.3
20260905095531 23 62 12.9 22.5 0.00 1.45 0.00 84 1015.0
20260905095400 23 217 1.6 4.8 0.00 1.45 0.00 88 1014.4
20260905094458 23 0 0.0 1.6 0.00 1.45 0.00 88 1014.0
20260905093701 23 0 0.0 1.6 0.00 1.45 0.00 88 1014.0
20260905093318 23 0 0.0 1.6 0.00 1.45 0.00 88 1014.0
20260905092049 23 0 0.0 0.0 0.00 1.45 0.00 87 1013.9
20260905091940 23 0 0.0 0.0 0.00 1.45 0.00 87 1014.0
20260905090834 23 0 0.0 0.0 0.00 1.45 0.00 87 1014.1
20260905090424 23 0 0.0 0.0 0.00 1.45 0.00 86 1014.1
20260905084940 23 0 0.0 0.0 0.00 1.45 0.00 85 1014.0
20260905084904 23 0 0.0 0.0 0.00 1.45 0.00 85 1014.0
20260905083838 24 0 0.0 0.0 0.00 1.45 0.00 85 1014.0
20260905082640 24 0 0.0 0.0 0.00 1.45 0.00 84 1013.9
20260905082321 24 0 0.0 0.0 0.00 1.45 0.00 84 1013.9
20260905080802 24 0 0.0 1.6 0.00 1.45 0.00 84 1013.7
20260905080158 24 0 0.0 1.6 0.00 1.45 0.00 84 1013.8
20260905075927 24 0 0.0 1.6 0.00 1.45 0.00 84 1013.6
20260905075755 24 0 0.0 1.6 0.00 1.45 0.00 84 1013.6